| time (UTC) | temp C | wind direction | speed KPH | gust KPH | rain 1hr cm | rain 24hr cm | rain mn cm | humidity % | barometer mb |
| 20260504000051 | 13 | 0 | 0.0 | 0.0 | 0.00 | 0.00 | 0.00 | 51 | 1016.9 |
| 20260503234550 | 14 | 0 | 0.0 | 0.0 | 0.00 | 0.00 | 0.00 | 46 | 1016.8 |
| 20260503233052 | 15 | 0 | 0.0 | 3.2 | 0.00 | 0.00 | 0.00 | 42 | 1016.7 |
| 20260503231551 | 15 | 0 | 0.0 | 3.2 | 0.00 | 0.00 | 0.00 | 41 | 1016.6 |
| 20260503230055 | 16 | 0 | 0.0 | 3.2 | 0.00 | 0.00 | 0.00 | 39 | 1016.7 |
| 20260503224552 | 17 | 89 | 0.0 | 4.8 | 0.00 | 0.00 | 0.00 | 37 | 1016.7 |
| 20260503223054 | 17 | 342 | 1.6 | 6.4 | 0.00 | 0.00 | 0.00 | 36 | 1016.7 |
| 20260503221554 | 17 | 0 | 1.6 | 4.8 | 0.00 | 0.00 | 0.00 | 36 | 1016.8 |
| 20260503214558 | 17 | 96 | 0.0 | 8.0 | 0.00 | 0.00 | 0.00 | 38 | 1016.7 |
| 20260503213054 | 17 | 173 | 3.2 | 17.7 | 0.00 | 0.00 | 0.00 | 34 | 1016.7 |
| 20260503211555 | 17 | 24 | 0.0 | 9.7 | 0.00 | 0.00 | 0.00 | 36 | 1016.7 |
| 20260503210054 | 17 | 71 | 3.2 | 9.7 | 0.00 | 0.00 | 0.00 | 36 | 1016.7 |
| 20260503204605 | 17 | 163 | 4.8 | 12.9 | 0.00 | 0.00 | 0.00 | 35 | 1016.6 |
| 20260503203101 | 17 | 53 | 1.6 | 9.7 | 0.00 | 0.00 | 0.00 | 35 | 1016.6 |
| 20260503201559 | 17 | 265 | 1.6 | 12.9 | 0.00 | 0.00 | 0.00 | 36 | 1016.7 |
| 20260503200101 | 16 | 124 | 4.8 | 11.3 | 0.00 | 0.00 | 0.00 | 34 | 1016.9 |
| 20260503194602 | 16 | 130 | 1.6 | 12.9 | 0.00 | 0.00 | 0.00 | 38 | 1016.9 |
| 20260503193102 | 16 | 218 | 4.8 | 14.5 | 0.00 | 0.00 | 0.00 | 35 | 1017.1 |
| 20260503191554 | 16 | 75 | 3.2 | 12.9 | 0.00 | 0.00 | 0.00 | 37 | 1017.3 |
| 20260503190057 | 16 | 127 | 6.4 | 16.1 | 0.00 | 0.00 | 0.00 | 37 | 1017.5 |
| 20260503184610 | 15 | 64 | 4.8 | 12.9 | 0.00 | 0.00 | 0.00 | 39 | 1018.0 |
| 20260503183057 | 15 | 145 | 4.8 | 16.1 | 0.00 | 0.00 | 0.00 | 39 | 1017.8 |
| 20260503181604 | 15 | 51 | 3.2 | 20.9 | 0.00 | 0.00 | 0.00 | 42 | 1017.8 |
| 20260503180116 | 15 | 204 | 4.8 | 14.5 | 0.00 | 0.00 | 0.00 | 41 | 1017.8 |
| 20260503174559 | 15 | 130 | 4.8 | 14.5 | 0.00 | 0.00 | 0.00 | 44 | 1017.8 |
| 20260503173109 | 15 | 158 | 4.8 | 16.1 | 0.00 | 0.00 | 0.00 | 43 | 1018.0 |
| 20260503171558 | 13 | 57 | 4.8 | 22.5 | 0.00 | 0.00 | 0.00 | 43 | 1018.3 |
| 20260503170106 | 14 | 209 | 3.2 | 19.3 | 0.00 | 0.00 | 0.00 | 43 | 1018.3 |
| 20260503160114 | 13 | 53 | 6.4 | 19.3 | 0.00 | 0.00 | 0.00 | 45 | 1018.7 |
| 20260503081551 | 11 | 224 | 3.2 | 12.9 | 0.00 | 0.03 | 0.00 | 68 | 1014.2 |
| 20260503071602 | 11 | 243 | 3.2 | 9.7 | 0.00 | 0.03 | 0.00 | 66 | 1013.6 |
| 20260503060111 | 10 | 0 | 0.0 | 1.6 | 0.00 | 0.03 | 0.00 | 73 | 1013.0 |
| 20260503054602 | 10 | 0 | 0.0 | 4.8 | 0.00 | 0.03 | 0.00 | 72 | 1013.0 |
| 20260503053054 | 10 | 0 | 0.0 | 1.6 | 0.00 | 0.03 | 0.00 | 69 | 1013.2 |
| 20260503051552 | 11 | 208 | 0.0 | 1.6 | 0.00 | 0.03 | 0.00 | 68 | 1013.2 |
| 20260503050051 | 11 | 0 | 0.0 | 3.2 | 0.00 | 0.03 | 0.00 | 67 | 1013.1 |
| 20260503044549 | 11 | 217 | 0.0 | 4.8 | 0.00 | 0.03 | 0.00 | 66 | 1013.2 |
| 20260503043053 | 11 | 210 | 0.0 | 4.8 | 0.00 | 0.03 | 0.00 | 66 | 1013.3 |
| 20260503041552 | 12 | 86 | 0.0 | 4.8 | 0.00 | 0.03 | 0.00 | 66 | 1013.3 |
| 20260503040059 | 12 | 115 | 0.0 | 3.2 | 0.00 | 0.03 | 0.00 | 67 | 1013.3 |
| 20260503034550 | 12 | 75 | 0.0 | 1.6 | 0.00 | 0.03 | 0.03 | 67 | 1013.4 |
| 20260503033052 | 12 | 0 | 0.0 | 1.6 | 0.00 | 0.03 | 0.03 | 67 | 1013.1 |
| 20260503031551 | 12 | 0 | 0.0 | 3.2 | 0.00 | 0.03 | 0.03 | 67 | 1012.9 |
| 20260503024552 | 12 | 0 | 0.0 | 3.2 | 0.00 | 0.03 | 0.03 | 66 | 1013.4 |
| 20260503023059 | 12 | 0 | 0.0 | 3.2 | 0.00 | 0.03 | 0.03 | 65 | 1013.2 |
| 20260503021559 | 12 | 0 | 0.0 | 6.4 | 0.00 | 0.03 | 0.03 | 64 | 1013.2 |
| 20260503020058 | 12 | 231 | 0.0 | 4.8 | 0.00 | 0.03 | 0.03 | 63 | 1013.1 |
| 20260503014559 | 12 | 162 | 0.0 | 9.7 | 0.00 | 0.03 | 0.03 | 63 | 1013.1 |
| 20260503013054 | 12 | 233 | 0.0 | 3.2 | 0.00 | 0.03 | 0.03 | 62 | 1013.0 |
| 20260503011602 | 12 | 255 | 1.6 | 9.7 | 0.00 | 0.03 | 0.03 | 61 | 1012.7 |
| 20260503010058 | 12 | 248 | 0.0 | 6.4 | 0.00 | 0.03 | 0.03 | 60 | 1012.9 |
| 20260503004559 | 12 | 0 | 1.6 | 8.0 | 0.00 | 0.03 | 0.03 | 59 | 1012.6 |
| 20260503003115 | 12 | 161 | 0.0 | 8.0 | 0.00 | 0.03 | 0.03 | 58 | 1012.5 |
| 20260503001605 | 12 | 179 | 3.2 | 16.1 | 0.00 | 0.03 | 0.03 | 59 | 1012.2 |